Year,Month,Day,Hour,Minute,Value (Times are PST for temperature in C)
2015,05,21,00,00,18.00
2015,05,21,00,01,18.20
2015,05,21,00,02,18.30
2015,05,21,00,03,18.50
2015,05,21,00,04,18.70
2015,05,21,00,05,18.80
2015,05,21,00,06,18.90
2015,05,21,00,07,18.90
2015,05,21,00,08,19.00
2015,05,21,00,09,19.00
2015,05,21,00,10,19.10
2015,05,21,00,11,19.10
2015,05,21,00,12,19.00
2015,05,21,00,13,19.00
2015,05,21,00,14,18.90
2015,05,21,00,15,18.90
2015,05,21,00,16,18.80
2015,05,21,00,17,18.80
2015,05,21,00,18,18.80
2015,05,21,00,19,18.80
2015,05,21,00,20,18.80
2015,05,21,00,21,18.80
2015,05,21,00,22,18.80
2015,05,21,00,23,18.80
2015,05,21,00,24,18.80
2015,05,21,00,25,18.90
2015,05,21,00,26,18.90
2015,05,21,00,27,18.90
2015,05,21,00,28,18.90
2015,05,21,00,29,19.00
2015,05,21,00,30,19.00
2015,05,21,00,31,19.00
2015,05,21,00,32,19.00
2015,05,21,00,33,19.00
2015,05,21,00,34,19.00
2015,05,21,00,35,19.00
2015,05,21,00,36,18.90
2015,05,21,00,37,18.90
2015,05,21,00,38,18.90
2015,05,21,00,39,18.80
2015,05,21,00,40,18.80
2015,05,21,00,41,18.70
2015,05,21,00,42,18.70
2015,05,21,00,43,18.60
2015,05,21,00,44,18.50
2015,05,21,00,45,18.50
2015,05,21,00,46,18.40
2015,05,21,00,47,18.40
2015,05,21,00,48,18.30
2015,05,21,00,49,18.30
2015,05,21,00,50,18.20
2015,05,21,00,51,18.20
2015,05,21,00,52,18.10
2015,05,21,00,53,18.00
2015,05,21,00,54,18.00
2015,05,21,00,55,17.90
2015,05,21,00,56,17.80
2015,05,21,00,57,17.80
2015,05,21,00,58,17.70
2015,05,21,00,59,17.70
2015,05,21,01,00,17.70
2015,05,21,01,01,17.70
2015,05,21,01,02,17.70
2015,05,21,01,03,17.70
2015,05,21,01,04,17.70
2015,05,21,01,05,17.60
2015,05,21,01,06,17.60
2015,05,21,01,07,17.60
2015,05,21,01,08,17.50
2015,05,21,01,09,17.50
2015,05,21,01,10,17.40
2015,05,21,01,11,17.40
2015,05,21,01,12,17.40
2015,05,21,01,13,17.30
2015,05,21,01,14,17.30
2015,05,21,01,15,17.20
2015,05,21,01,16,17.20
2015,05,21,01,17,17.20
2015,05,21,01,18,17.10
2015,05,21,01,19,17.10
2015,05,21,01,20,17.10
2015,05,21,01,21,17.10
2015,05,21,01,22,17.00
2015,05,21,01,23,16.90
2015,05,21,01,24,16.90
2015,05,21,01,25,16.80
2015,05,21,01,26,16.80
2015,05,21,01,27,16.80
2015,05,21,01,28,16.70
2015,05,21,01,29,16.60
2015,05,21,01,30,16.50
2015,05,21,01,31,16.50
2015,05,21,01,32,16.40
2015,05,21,01,33,16.30
2015,05,21,01,34,16.30
2015,05,21,01,35,16.20
2015,05,21,01,36,16.20
2015,05,21,01,37,16.20
2015,05,21,01,38,16.20
2015,05,21,01,39,16.20
2015,05,21,01,40,16.20
2015,05,21,01,41,16.20
2015,05,21,01,42,16.20
2015,05,21,01,43,16.20
2015,05,21,01,44,16.30
2015,05,21,01,45,16.30
2015,05,21,01,46,16.30
2015,05,21,01,47,16.40
2015,05,21,01,48,16.40
2015,05,21,01,49,16.40
2015,05,21,01,50,16.40
2015,05,21,01,51,16.40
2015,05,21,01,52,16.40
2015,05,21,01,53,16.40
2015,05,21,01,54,16.40
2015,05,21,01,55,16.50
2015,05,21,01,56,16.50
2015,05,21,01,57,16.40
2015,05,21,01,58,16.40
2015,05,21,01,59,16.40
2015,05,21,02,00,16.40
2015,05,21,02,01,16.40
2015,05,21,02,02,16.40
2015,05,21,02,03,16.40
2015,05,21,02,04,16.40
2015,05,21,02,05,16.50
2015,05,21,02,06,16.50
2015,05,21,02,07,16.60
2015,05,21,02,08,16.60
2015,05,21,02,09,16.70
2015,05,21,02,10,16.70
2015,05,21,02,11,16.80
2015,05,21,02,12,16.80
2015,05,21,02,13,16.80
2015,05,21,02,14,16.80
2015,05,21,02,15,16.80
2015,05,21,02,16,16.80
2015,05,21,02,17,16.80
2015,05,21,02,18,16.80
2015,05,21,02,19,16.80
2015,05,21,02,20,16.80
2015,05,21,02,21,16.80
2015,05,21,02,22,16.80
2015,05,21,02,23,16.80
2015,05,21,02,24,16.70
2015,05,21,02,25,16.70
2015,05,21,02,26,16.60
2015,05,21,02,27,16.60
2015,05,21,02,28,16.60
2015,05,21,02,29,16.50
2015,05,21,02,30,16.50
2015,05,21,02,31,16.50
2015,05,21,02,32,16.40
2015,05,21,02,33,16.40
2015,05,21,02,34,16.40
2015,05,21,02,35,16.40
2015,05,21,02,36,16.40
2015,05,21,02,37,16.40
2015,05,21,02,38,16.30
2015,05,21,02,39,16.30
2015,05,21,02,40,16.30
2015,05,21,02,41,16.20
2015,05,21,02,42,16.20
2015,05,21,02,43,16.20
2015,05,21,02,44,16.10
2015,05,21,02,45,16.10
2015,05,21,02,46,16.10
2015,05,21,02,47,16.00
2015,05,21,02,48,15.90
2015,05,21,02,49,15.90
2015,05,21,02,50,15.90
2015,05,21,02,51,15.80
2015,05,21,02,52,15.80
2015,05,21,02,53,15.80
2015,05,21,02,54,15.80
2015,05,21,02,55,15.90
2015,05,21,02,56,15.90
2015,05,21,02,57,16.00
2015,05,21,02,58,16.00
2015,05,21,02,59,16.10
2015,05,21,03,00,16.20
2015,05,21,03,01,16.30
2015,05,21,03,02,16.30
2015,05,21,03,03,16.40
2015,05,21,03,04,16.40
2015,05,21,03,05,16.40
2015,05,21,03,06,16.40
2015,05,21,03,07,16.40
2015,05,21,03,08,16.30
2015,05,21,03,09,16.30
2015,05,21,03,10,16.20
2015,05,21,03,11,16.10
2015,05,21,03,12,16.10
2015,05,21,03,13,16.00
2015,05,21,03,14,16.00
2015,05,21,03,15,15.90
2015,05,21,03,16,15.90
2015,05,21,03,17,15.80
2015,05,21,03,18,15.80
2015,05,21,03,19,15.70
2015,05,21,03,20,15.60
2015,05,21,03,21,15.60
2015,05,21,03,22,15.50
2015,05,21,03,23,15.40
2015,05,21,03,24,15.30
2015,05,21,03,25,15.30
2015,05,21,03,26,15.20
2015,05,21,03,27,15.10
2015,05,21,03,28,15.00
2015,05,21,03,29,15.00
2015,05,21,03,30,15.00
2015,05,21,03,31,15.00
2015,05,21,03,32,15.00
2015,05,21,03,33,14.90
2015,05,21,03,34,14.80
2015,05,21,03,35,14.80
2015,05,21,03,36,14.80
2015,05,21,03,37,14.70
2015,05,21,03,38,14.70
2015,05,21,03,39,14.70
2015,05,21,03,40,14.70
2015,05,21,03,41,14.70
2015,05,21,03,42,14.70
2015,05,21,03,43,14.70
2015,05,21,03,44,14.70
2015,05,21,03,45,14.80
2015,05,21,03,46,14.80
2015,05,21,03,47,14.80
2015,05,21,03,48,14.80
2015,05,21,03,49,14.90
2015,05,21,03,50,14.90
2015,05,21,03,51,15.00
2015,05,21,03,52,14.90
2015,05,21,03,53,14.90
2015,05,21,03,54,14.80
2015,05,21,03,55,14.80
2015,05,21,03,56,14.80
2015,05,21,03,57,14.70
2015,05,21,03,58,14.70
2015,05,21,03,59,14.60
2015,05,21,04,00,14.60
2015,05,21,04,01,14.50
2015,05,21,04,02,14.50
2015,05,21,04,03,14.40
2015,05,21,04,04,14.40
2015,05,21,04,05,14.40
2015,05,21,04,06,14.40
2015,05,21,04,07,14.30
2015,05,21,04,08,14.30
2015,05,21,04,09,14.30
2015,05,21,04,10,14.20
2015,05,21,04,11,14.20
2015,05,21,04,12,14.20
2015,05,21,04,13,14.20
2015,05,21,04,14,14.30
2015,05,21,04,15,14.30
2015,05,21,04,16,14.40
2015,05,21,04,17,14.50
2015,05,21,04,18,14.60
2015,05,21,04,19,14.70
2015,05,21,04,20,14.80
2015,05,21,04,21,14.90
2015,05,21,04,22,14.90
2015,05,21,04,23,15.00
2015,05,21,04,24,15.00
2015,05,21,04,25,15.00
2015,05,21,04,26,15.00
2015,05,21,04,27,15.00
2015,05,21,04,28,15.00
2015,05,21,04,29,15.00
2015,05,21,04,30,15.00
2015,05,21,04,31,15.00
2015,05,21,04,32,15.00
2015,05,21,04,33,14.90
2015,05,21,04,34,14.90
2015,05,21,04,35,14.90
2015,05,21,04,36,14.90
2015,05,21,04,37,14.90
2015,05,21,04,38,15.00
2015,05,21,04,39,15.00
2015,05,21,04,40,15.00
2015,05,21,04,41,15.00
2015,05,21,04,42,15.00
2015,05,21,04,43,15.00
2015,05,21,04,44,15.00
2015,05,21,04,45,15.00
2015,05,21,04,46,15.00
2015,05,21,04,47,15.00
2015,05,21,04,48,15.00
2015,05,21,04,49,15.00
2015,05,21,04,50,15.00
2015,05,21,04,51,15.00
2015,05,21,04,52,15.00
2015,05,21,04,53,15.00
2015,05,21,04,54,15.00
2015,05,21,04,55,14.90
2015,05,21,04,56,14.80
2015,05,21,04,57,14.80
2015,05,21,04,58,14.70
2015,05,21,04,59,14.70
2015,05,21,05,00,14.70
2015,05,21,05,01,14.60
2015,05,21,05,02,14.60
2015,05,21,05,03,14.60
2015,05,21,05,04,14.50
2015,05,21,05,05,14.50
2015,05,21,05,06,14.50
2015,05,21,05,07,14.40
2015,05,21,05,08,14.40
2015,05,21,05,09,14.30
2015,05,21,05,10,14.30
2015,05,21,05,11,14.30
2015,05,21,05,12,14.20
2015,05,21,05,13,14.20
2015,05,21,05,14,14.10
2015,05,21,05,15,14.10
2015,05,21,05,16,14.10
2015,05,21,05,17,14.10
2015,05,21,05,18,14.10
2015,05,21,05,19,14.10
2015,05,21,05,20,14.10
2015,05,21,05,21,14.10
2015,05,21,05,22,14.10
2015,05,21,05,23,14.10
2015,05,21,05,24,14.00
2015,05,21,05,25,14.00
2015,05,21,05,26,13.90
2015,05,21,05,27,13.90
2015,05,21,05,28,13.90
2015,05,21,05,29,13.80
2015,05,21,05,30,13.80
2015,05,21,05,31,13.80
2015,05,21,05,32,13.70
2015,05,21,05,33,13.70
2015,05,21,05,34,13.70
2015,05,21,05,35,13.70
2015,05,21,05,36,13.60
2015,05,21,05,37,13.60
2015,05,21,05,38,13.50
2015,05,21,05,39,13.50
2015,05,21,05,40,13.40
2015,05,21,05,41,13.40
2015,05,21,05,42,13.40
2015,05,21,05,43,13.40
2015,05,21,05,44,13.50
2015,05,21,05,45,13.60
2015,05,21,05,46,13.70
2015,05,21,05,47,13.80
2015,05,21,05,48,13.80
2015,05,21,05,49,13.90
2015,05,21,05,50,14.00
2015,05,21,05,51,14.10
2015,05,21,05,52,14.10
2015,05,21,05,53,14.20
2015,05,21,05,54,14.30
2015,05,21,05,55,14.30
2015,05,21,05,56,14.30
2015,05,21,05,57,14.30
2015,05,21,05,58,14.40
2015,05,21,05,59,14.40
2015,05,21,06,00,14.40
2015,05,21,06,01,14.40
2015,05,21,06,02,14.40
2015,05,21,06,03,14.40
2015,05,21,06,04,14.40
2015,05,21,06,05,14.40
2015,05,21,06,06,14.40
2015,05,21,06,07,14.30
2015,05,21,06,08,14.30
2015,05,21,06,09,14.20
2015,05,21,06,10,14.20
2015,05,21,06,11,14.20
2015,05,21,06,12,14.10
2015,05,21,06,13,14.10
2015,05,21,06,14,14.00
2015,05,21,06,15,14.00
2015,05,21,06,16,14.00
2015,05,21,06,17,14.00
2015,05,21,06,18,14.00
2015,05,21,06,19,14.00
2015,05,21,06,20,14.00
2015,05,21,06,21,14.00
2015,05,21,06,22,14.00
2015,05,21,06,23,14.00
2015,05,21,06,24,14.00
2015,05,21,06,25,14.00
2015,05,21,06,26,14.00
2015,05,21,06,27,13.90
2015,05,21,06,28,13.90
2015,05,21,06,29,13.90
2015,05,21,06,30,13.80
2015,05,21,06,31,13.80
2015,05,21,06,32,13.80
2015,05,21,06,33,13.80
2015,05,21,06,34,13.80
2015,05,21,06,35,13.80
2015,05,21,06,36,13.80
2015,05,21,06,37,13.80
2015,05,21,06,38,13.80
2015,05,21,06,39,13.70
2015,05,21,06,40,13.70
2015,05,21,06,41,13.70
2015,05,21,06,42,13.70
2015,05,21,06,43,13.70
2015,05,21,06,44,13.60
2015,05,21,06,45,13.60
2015,05,21,06,46,13.60
2015,05,21,06,47,13.60
2015,05,21,06,48,13.60
2015,05,21,06,49,13.60
2015,05,21,06,50,13.60
2015,05,21,06,51,13.60
2015,05,21,06,52,13.60
2015,05,21,06,53,13.60
2015,05,21,06,54,13.60
2015,05,21,06,55,13.70
2015,05,21,06,56,13.70
2015,05,21,06,57,13.80
2015,05,21,06,58,13.90
2015,05,21,06,59,13.90
2015,05,21,07,00,14.00
2015,05,21,07,01,14.10
2015,05,21,07,02,14.20
2015,05,21,07,03,14.30
2015,05,21,07,04,14.40
2015,05,21,07,05,14.60
2015,05,21,07,06,14.70
2015,05,21,07,07,14.90
2015,05,21,07,08,15.00
2015,05,21,07,09,15.10
2015,05,21,07,10,15.30
2015,05,21,07,11,15.40
2015,05,21,07,12,15.60
2015,05,21,07,13,15.70
2015,05,21,07,14,15.80
2015,05,21,07,15,15.90
2015,05,21,07,16,16.00
2015,05,21,07,17,16.10
2015,05,21,07,18,16.10
2015,05,21,07,19,16.20
2015,05,21,07,20,16.20
2015,05,21,07,21,16.20
2015,05,21,07,22,16.30
2015,05,21,07,23,16.30
2015,05,21,07,24,16.30
2015,05,21,07,25,16.30
2015,05,21,07,26,16.20
2015,05,21,07,27,16.20
2015,05,21,07,28,16.20
2015,05,21,07,29,16.20
2015,05,21,07,30,16.20
2015,05,21,07,31,16.30
2015,05,21,07,32,16.30
2015,05,21,07,33,16.30
2015,05,21,07,34,16.30
2015,05,21,07,35,16.30
2015,05,21,07,36,16.30
2015,05,21,07,37,16.30
2015,05,21,07,38,16.30
2015,05,21,07,39,16.30
2015,05,21,07,40,16.30
2015,05,21,07,41,16.40
2015,05,21,07,42,16.40
2015,05,21,07,43,16.40
2015,05,21,07,44,16.40
2015,05,21,07,45,16.50
2015,05,21,07,46,16.50
2015,05,21,07,47,16.50
2015,05,21,07,48,16.60
2015,05,21,07,49,16.60
2015,05,21,07,50,16.60
2015,05,21,07,51,16.70
2015,05,21,07,52,16.70
2015,05,21,07,53,16.70
2015,05,21,07,54,16.70
2015,05,21,07,55,16.80
2015,05,21,07,56,16.80
2015,05,21,07,57,16.80
2015,05,21,07,58,16.90
2015,05,21,07,59,16.90
2015,05,21,08,00,17.00
2015,05,21,08,01,17.00
2015,05,21,08,02,17.00
2015,05,21,08,03,17.10
2015,05,21,08,04,17.10
2015,05,21,08,05,17.10
2015,05,21,08,06,17.20
2015,05,21,08,07,17.20
2015,05,21,08,08,17.20
2015,05,21,08,09,17.20
2015,05,21,08,10,17.20
2015,05,21,08,11,17.20
2015,05,21,08,12,17.20
2015,05,21,08,13,17.30
2015,05,21,08,14,17.30
2015,05,21,08,15,17.40
2015,05,21,08,16,17.40
2015,05,21,08,17,17.50
2015,05,21,08,18,17.60
2015,05,21,08,19,17.70
2015,05,21,08,20,17.70
2015,05,21,08,21,17.80
2015,05,21,08,22,17.90
2015,05,21,08,23,17.90
2015,05,21,08,24,18.00
2015,05,21,08,25,18.00
2015,05,21,08,26,18.10
2015,05,21,08,27,18.10
2015,05,21,08,28,18.00
2015,05,21,08,29,17.90
2015,05,21,08,30,17.80
2015,05,21,08,31,17.70
2015,05,21,08,32,17.60
2015,05,21,08,33,17.50
2015,05,21,08,34,17.50
2015,05,21,08,35,17.50
2015,05,21,08,36,17.50
2015,05,21,08,37,17.50
2015,05,21,08,38,17.60
2015,05,21,08,39,17.60
2015,05,21,08,40,17.70
2015,05,21,08,41,17.80
2015,05,21,08,42,17.90
2015,05,21,08,43,18.00
2015,05,21,08,44,18.00
2015,05,21,08,45,18.10
2015,05,21,08,46,18.10
2015,05,21,08,47,18.10
2015,05,21,08,48,18.10
2015,05,21,08,49,18.10
2015,05,21,08,50,18.10
2015,05,21,08,51,18.10
2015,05,21,08,52,18.00
2015,05,21,08,53,17.90
2015,05,21,08,54,17.90
2015,05,21,08,55,18.00
2015,05,21,08,56,18.00
2015,05,21,08,57,18.00
2015,05,21,08,58,18.00
2015,05,21,08,59,18.00
2015,05,21,09,00,18.10
2015,05,21,09,01,18.20
2015,05,21,09,02,18.20
2015,05,21,09,03,18.20
2015,05,21,09,04,18.10
2015,05,21,09,05,18.00
2015,05,21,09,06,17.90
2015,05,21,09,07,17.80
2015,05,21,09,08,17.80
2015,05,21,09,09,17.70
2015,05,21,09,10,17.70
2015,05,21,09,11,17.70
2015,05,21,09,12,17.70
2015,05,21,09,13,17.70
2015,05,21,09,14,17.80
2015,05,21,09,15,17.80
2015,05,21,09,16,17.80
2015,05,21,09,17,17.80
2015,05,21,09,18,17.70
2015,05,21,09,19,17.70
2015,05,21,09,20,17.70
2015,05,21,09,21,17.70
2015,05,21,09,22,17.70
2015,05,21,09,23,17.80
2015,05,21,09,24,17.80
2015,05,21,09,25,17.90
2015,05,21,09,26,17.90
2015,05,21,09,27,18.00
2015,05,21,09,28,18.00
2015,05,21,09,29,17.90
2015,05,21,09,30,17.90
2015,05,21,09,31,17.90
2015,05,21,09,32,17.90
2015,05,21,09,33,17.90
2015,05,21,09,34,17.80
2015,05,21,09,35,17.80
2015,05,21,09,36,17.80
2015,05,21,09,37,17.70
2015,05,21,09,38,17.60
2015,05,21,09,39,17.50
2015,05,21,09,40,17.50
2015,05,21,09,41,17.40
2015,05,21,09,42,17.40
2015,05,21,09,43,17.40
2015,05,21,09,44,17.40
2015,05,21,09,45,17.50
2015,05,21,09,46,17.40
2015,05,21,09,47,17.40
2015,05,21,09,48,17.40
2015,05,21,09,49,17.30
2015,05,21,09,50,17.20
2015,05,21,09,51,17.00
2015,05,21,09,52,16.90
2015,05,21,09,53,16.80
2015,05,21,09,54,16.80
2015,05,21,09,55,16.80
2015,05,21,09,56,16.70
2015,05,21,09,57,16.70
2015,05,21,09,58,16.70
2015,05,21,09,59,16.70
2015,05,21,10,00,16.70
2015,05,21,10,01,16.70
2015,05,21,10,02,16.70
2015,05,21,10,03,16.70
2015,05,21,10,04,16.80
2015,05,21,10,05,16.70
2015,05,21,10,06,16.70
2015,05,21,10,07,16.70
2015,05,21,10,08,16.80
2015,05,21,10,09,16.70
2015,05,21,10,10,16.70
2015,05,21,10,11,16.70
2015,05,21,10,12,16.80
2015,05,21,10,13,16.80
2015,05,21,10,14,16.90
2015,05,21,10,15,16.90
2015,05,21,10,16,16.80
2015,05,21,10,17,16.80
2015,05,21,10,18,16.90
2015,05,21,10,19,16.90
2015,05,21,10,20,17.00
2015,05,21,10,21,17.00
2015,05,21,10,22,17.00
2015,05,21,10,23,16.90
2015,05,21,10,24,16.90
2015,05,21,10,25,17.00
2015,05,21,10,26,17.00
2015,05,21,10,27,17.10
2015,05,21,10,28,17.20
2015,05,21,10,29,17.30
2015,05,21,10,30,17.30
2015,05,21,10,31,17.30
2015,05,21,10,32,17.40
2015,05,21,10,33,17.40
2015,05,21,10,34,17.40
2015,05,21,10,35,17.40
2015,05,21,10,36,17.50
2015,05,21,10,37,17.50
2015,05,21,10,38,17.60
2015,05,21,10,39,17.70
2015,05,21,10,40,17.70
2015,05,21,10,41,17.70
2015,05,21,10,42,17.80
2015,05,21,10,43,17.80
2015,05,21,10,44,17.70
2015,05,21,10,45,17.70
2015,05,21,10,46,17.70
2015,05,21,10,47,17.70
2015,05,21,10,48,17.80
2015,05,21,10,49,17.80
2015,05,21,10,50,17.80
2015,05,21,10,51,17.80
2015,05,21,10,52,17.80
2015,05,21,10,53,17.80
2015,05,21,10,54,17.80
2015,05,21,10,55,17.80
2015,05,21,10,56,17.80
2015,05,21,10,57,17.80
2015,05,21,10,58,17.80
2015,05,21,10,59,17.70
2015,05,21,11,00,17.70
2015,05,21,11,01,17.70
2015,05,21,11,02,17.70
2015,05,21,11,03,17.70
2015,05,21,11,04,17.60
2015,05,21,11,05,17.60
2015,05,21,11,06,17.60
2015,05,21,11,07,17.60
2015,05,21,11,08,17.60
2015,05,21,11,09,17.60
2015,05,21,11,10,17.60
2015,05,21,11,11,17.60
2015,05,21,11,12,17.70
2015,05,21,11,13,17.70
2015,05,21,11,14,17.70
2015,05,21,11,15,17.80
2015,05,21,11,16,17.90
2015,05,21,11,17,18.10
2015,05,21,11,18,18.20
2015,05,21,11,19,18.30
2015,05,21,11,20,18.40
2015,05,21,11,21,18.40
2015,05,21,11,22,18.40
2015,05,21,11,23,18.40
2015,05,21,11,24,18.30
2015,05,21,11,25,18.30
2015,05,21,11,26,18.20
2015,05,21,11,27,18.10
2015,05,21,11,28,18.10
2015,05,21,11,29,18.10
2015,05,21,11,30,18.10
2015,05,21,11,31,18.10
2015,05,21,11,32,18.10
2015,05,21,11,33,18.20
2015,05,21,11,34,18.20
2015,05,21,11,35,18.30
2015,05,21,11,36,18.40
2015,05,21,11,37,18.50
2015,05,21,11,38,18.60
2015,05,21,11,39,18.70
2015,05,21,11,40,18.80
2015,05,21,11,41,18.80
2015,05,21,11,42,18.90
2015,05,21,11,43,18.90
2015,05,21,11,44,19.00
2015,05,21,11,45,19.00
2015,05,21,11,46,19.10
2015,05,21,11,47,19.10
2015,05,21,11,48,19.20
2015,05,21,11,49,19.20
2015,05,21,11,50,19.20
2015,05,21,11,51,19.20
2015,05,21,11,52,19.20
2015,05,21,11,53,19.10
2015,05,21,11,54,19.00
2015,05,21,11,55,19.00
2015,05,21,11,56,19.10
2015,05,21,11,57,19.10
2015,05,21,11,58,19.20
2015,05,21,11,59,19.20
2015,05,21,12,00,19.30
2015,05,21,12,01,19.30
2015,05,21,12,02,19.30
2015,05,21,12,03,19.30
2015,05,21,12,04,19.40
2015,05,21,12,05,19.40
2015,05,21,12,06,19.40
2015,05,21,12,07,19.30
2015,05,21,12,08,19.30
2015,05,21,12,09,19.30
2015,05,21,12,10,19.20
2015,05,21,12,11,19.20
2015,05,21,12,12,19.20
2015,05,21,12,13,19.20
2015,05,21,12,14,19.30
2015,05,21,12,15,19.30
2015,05,21,12,16,19.30
2015,05,21,12,17,19.40
2015,05,21,12,18,19.40
2015,05,21,12,19,19.40
2015,05,21,12,20,19.50
2015,05,21,12,21,19.50
2015,05,21,12,22,19.60
2015,05,21,12,23,19.70
2015,05,21,12,24,19.80
2015,05,21,12,25,19.90
2015,05,21,12,26,19.90
2015,05,21,12,27,20.00
2015,05,21,12,28,20.10
2015,05,21,12,29,20.10
2015,05,21,12,30,20.10
2015,05,21,12,31,20.10
2015,05,21,12,32,20.10
2015,05,21,12,33,20.10
2015,05,21,12,34,20.10
2015,05,21,12,35,20.10
2015,05,21,12,36,20.10
2015,05,21,12,37,20.00
2015,05,21,12,38,20.00
2015,05,21,12,39,19.90
2015,05,21,12,40,19.90
2015,05,21,12,41,19.90
2015,05,21,12,42,19.80
2015,05,21,12,43,19.80
2015,05,21,12,44,19.70
2015,05,21,12,45,19.70
2015,05,21,12,46,19.80
2015,05,21,12,47,19.80
2015,05,21,12,48,19.90
2015,05,21,12,49,20.00
2015,05,21,12,50,20.00
2015,05,21,12,51,20.00
2015,05,21,12,52,20.00
2015,05,21,12,53,20.00
2015,05,21,12,54,20.00
2015,05,21,12,55,20.00
2015,05,21,12,56,20.00
2015,05,21,12,57,20.00
2015,05,21,12,58,20.00
2015,05,21,12,59,20.00
2015,05,21,13,00,20.00
2015,05,21,13,01,20.00
2015,05,21,13,02,20.10
2015,05,21,13,03,20.10
2015,05,21,13,04,20.20
2015,05,21,13,05,20.20
2015,05,21,13,06,20.30
2015,05,21,13,07,20.30
2015,05,21,13,08,20.30
2015,05,21,13,09,20.40
2015,05,21,13,10,20.40
2015,05,21,13,11,20.40
2015,05,21,13,12,20.50
2015,05,21,13,13,20.50
2015,05,21,13,14,20.60
2015,05,21,13,15,20.60
2015,05,21,13,16,20.60
2015,05,21,13,17,20.60
2015,05,21,13,18,20.70
2015,05,21,13,19,20.80
2015,05,21,13,20,20.90
2015,05,21,13,21,20.90
2015,05,21,13,22,20.90
2015,05,21,13,23,20.90
2015,05,21,13,24,20.90
2015,05,21,13,25,20.90
2015,05,21,13,26,20.90
2015,05,21,13,27,20.80
2015,05,21,13,28,20.80
2015,05,21,13,29,20.80
2015,05,21,13,30,20.80
2015,05,21,13,31,20.80
2015,05,21,13,32,20.80
2015,05,21,13,33,20.80
2015,05,21,13,34,20.90
2015,05,21,13,35,20.90
2015,05,21,13,36,20.90
2015,05,21,13,37,20.90
2015,05,21,13,38,20.90
2015,05,21,13,39,21.00
2015,05,21,13,40,21.00
2015,05,21,13,41,21.00
2015,05,21,13,42,21.00
2015,05,21,13,43,21.10
2015,05,21,13,44,21.20
2015,05,21,13,45,21.20
2015,05,21,13,46,21.30
2015,05,21,13,47,21.30
2015,05,21,13,48,21.30
2015,05,21,13,49,21.40
2015,05,21,13,50,21.50
2015,05,21,13,51,21.60
2015,05,21,13,52,21.70
2015,05,21,13,53,21.70
2015,05,21,13,54,21.80
2015,05,21,13,55,21.80
2015,05,21,13,56,21.90
2015,05,21,13,57,22.00
2015,05,21,13,58,22.10
2015,05,21,13,59,22.20
2015,05,21,14,00,22.20
2015,05,21,14,01,22.20
2015,05,21,14,02,22.20
2015,05,21,14,03,22.20
2015,05,21,14,04,22.30
2015,05,21,14,05,22.30
2015,05,21,14,06,22.30
2015,05,21,14,07,22.30
2015,05,21,14,08,22.30
2015,05,21,14,09,22.30
2015,05,21,14,10,22.30
2015,05,21,14,11,22.20
2015,05,21,14,12,22.20
2015,05,21,14,13,22.20
2015,05,21,14,14,22.30
2015,05,21,14,15,22.30
2015,05,21,14,16,22.40
2015,05,21,14,17,22.40
2015,05,21,14,18,22.50
2015,05,21,14,19,22.60
2015,05,21,14,20,22.70
2015,05,21,14,21,22.70
2015,05,21,14,22,22.80
2015,05,21,14,23,22.80
2015,05,21,14,24,22.80
2015,05,21,14,25,22.80
2015,05,21,14,26,22.90
2015,05,21,14,27,23.00
2015,05,21,14,28,23.00
2015,05,21,14,29,23.10
2015,05,21,14,30,23.20
2015,05,21,14,31,23.20
2015,05,21,14,32,23.10
2015,05,21,14,33,23.10
2015,05,21,14,34,23.10
2015,05,21,14,35,23.10
2015,05,21,14,36,23.10
2015,05,21,14,37,23.10
2015,05,21,14,38,23.10
2015,05,21,14,39,23.10
2015,05,21,14,40,23.10
2015,05,21,14,41,23.10
2015,05,21,14,42,23.20
2015,05,21,14,43,23.20
2015,05,21,14,44,23.20
2015,05,21,14,45,23.20
2015,05,21,14,46,23.20
2015,05,21,14,47,23.20
2015,05,21,14,48,23.20
2015,05,21,14,49,23.30
2015,05,21,14,50,23.30
2015,05,21,14,51,23.40
2015,05,21,14,52,23.50
2015,05,21,14,53,23.60
2015,05,21,14,54,23.70
2015,05,21,14,55,23.80
2015,05,21,14,56,23.80
2015,05,21,14,57,23.80
2015,05,21,14,58,23.80
2015,05,21,14,59,23.80
2015,05,21,15,00,23.90
2015,05,21,15,01,23.90
2015,05,21,15,02,23.90
2015,05,21,15,03,23.90
2015,05,21,15,04,24.00
2015,05,21,15,05,24.00
2015,05,21,15,06,24.10
2015,05,21,15,07,24.10
2015,05,21,15,08,24.10
2015,05,21,15,09,24.10
2015,05,21,15,10,24.10
2015,05,21,15,11,24.10
2015,05,21,15,12,24.10
2015,05,21,15,13,24.10
2015,05,21,15,14,24.10
2015,05,21,15,15,24.20
2015,05,21,15,16,24.20
2015,05,21,15,17,24.30
2015,05,21,15,18,24.30
2015,05,21,15,19,24.30
2015,05,21,15,20,24.30
2015,05,21,15,21,24.30
2015,05,21,15,22,24.30
2015,05,21,15,23,24.30
2015,05,21,15,24,24.40
2015,05,21,15,25,24.40
2015,05,21,15,26,24.40
2015,05,21,15,27,24.30
2015,05,21,15,28,24.30
2015,05,21,15,29,24.20
2015,05,21,15,30,24.20
2015,05,21,15,31,24.10
2015,05,21,15,32,24.10
2015,05,21,15,33,24.10
2015,05,21,15,34,24.10
2015,05,21,15,35,24.10
2015,05,21,15,36,24.10
2015,05,21,15,37,24.10
2015,05,21,15,38,24.00
2015,05,21,15,39,24.00
2015,05,21,15,40,24.00
2015,05,21,15,41,23.90
2015,05,21,15,42,23.80
2015,05,21,15,43,23.80
2015,05,21,15,44,23.70
2015,05,21,15,45,23.60
2015,05,21,15,46,23.50
2015,05,21,15,47,23.40
2015,05,21,15,48,23.30
2015,05,21,15,49,23.30
2015,05,21,15,50,23.20
2015,05,21,15,51,23.10
2015,05,21,15,52,23.00
2015,05,21,15,53,23.00
2015,05,21,15,54,22.90
2015,05,21,15,55,22.90
2015,05,21,15,56,22.90
2015,05,21,15,57,22.90
2015,05,21,15,58,23.00
2015,05,21,15,59,23.00
2015,05,21,16,00,23.10
2015,05,21,16,01,23.10
2015,05,21,16,02,23.20
2015,05,21,16,03,23.30
2015,05,21,16,04,23.40
2015,05,21,16,05,23.50
2015,05,21,16,06,23.70
2015,05,21,16,07,23.80
2015,05,21,16,08,23.90
2015,05,21,16,09,23.90
2015,05,21,16,10,24.00
2015,05,21,16,11,24.10
2015,05,21,16,12,24.10
2015,05,21,16,13,24.20
2015,05,21,16,14,24.30
2015,05,21,16,15,24.40
2015,05,21,16,16,24.40
2015,05,21,16,17,24.40
2015,05,21,16,18,24.40
2015,05,21,16,19,24.30
2015,05,21,16,20,24.30
2015,05,21,16,21,24.30
2015,05,21,16,22,24.20
2015,05,21,16,23,24.10
2015,05,21,16,24,24.10
2015,05,21,16,25,23.90
2015,05,21,16,26,23.80
2015,05,21,16,27,23.80
2015,05,21,16,28,23.70
2015,05,21,16,29,23.60
2015,05,21,16,30,23.50
2015,05,21,16,31,23.40
2015,05,21,16,32,23.40
2015,05,21,16,33,23.30
2015,05,21,16,34,23.20
2015,05,21,16,35,23.20
2015,05,21,16,36,23.10
2015,05,21,16,37,23.10
2015,05,21,16,38,23.00
2015,05,21,16,39,23.00
2015,05,21,16,40,22.90
2015,05,21,16,41,22.90
2015,05,21,16,42,22.90
2015,05,21,16,43,22.90
2015,05,21,16,44,22.80
2015,05,21,16,45,22.80
2015,05,21,16,46,22.80
2015,05,21,16,47,22.80
2015,05,21,16,48,22.80
2015,05,21,16,49,22.70
2015,05,21,16,50,22.70
2015,05,21,16,51,22.70
2015,05,21,16,52,22.70
2015,05,21,16,53,22.70
2015,05,21,16,54,22.70
2015,05,21,16,55,22.70
2015,05,21,16,56,22.70
2015,05,21,16,57,22.70
2015,05,21,16,58,22.70
2015,05,21,16,59,22.70
2015,05,21,17,00,22.70
2015,05,21,17,01,22.60
2015,05,21,17,02,22.60
2015,05,21,17,03,22.60
2015,05,21,17,04,22.60
2015,05,21,17,05,22.50
2015,05,21,17,06,22.50
2015,05,21,17,07,22.40
2015,05,21,17,08,22.40
2015,05,21,17,09,22.40
2015,05,21,17,10,22.40
2015,05,21,17,11,22.30
2015,05,21,17,12,22.30
2015,05,21,17,13,22.30
2015,05,21,17,14,22.30
2015,05,21,17,15,22.30
2015,05,21,17,16,22.30
2015,05,21,17,17,22.30
2015,05,21,17,18,22.20
2015,05,21,17,19,22.20